Year,Month,Day,Hour,Minute,Value (Times are PST for temperature in C)
2007,03,27,00,00,6.40
2007,03,27,00,01,6.40
2007,03,27,00,02,6.40
2007,03,27,00,03,6.40
2007,03,27,00,04,6.30
2007,03,27,00,05,6.30
2007,03,27,00,06,6.20
2007,03,27,00,07,6.20
2007,03,27,00,08,6.20
2007,03,27,00,09,6.20
2007,03,27,00,10,6.20
2007,03,27,00,11,6.10
2007,03,27,00,12,6.10
2007,03,27,00,13,6.10
2007,03,27,00,14,6.10
2007,03,27,00,15,6.00
2007,03,27,00,16,6.00
2007,03,27,00,17,6.00
2007,03,27,00,18,6.00
2007,03,27,00,19,5.90
2007,03,27,00,20,5.90
2007,03,27,00,21,5.90
2007,03,27,00,22,5.90
2007,03,27,00,23,5.90
2007,03,27,00,24,5.80
2007,03,27,00,25,5.80
2007,03,27,00,26,5.80
2007,03,27,00,27,5.70
2007,03,27,00,28,5.70
2007,03,27,00,29,5.70
2007,03,27,00,30,5.70
2007,03,27,00,31,5.70
2007,03,27,00,32,5.60
2007,03,27,00,33,5.60
2007,03,27,00,34,5.60
2007,03,27,00,35,5.60
2007,03,27,00,36,5.60
2007,03,27,00,37,5.50
2007,03,27,00,38,5.50
2007,03,27,00,39,5.50
2007,03,27,00,40,5.50
2007,03,27,00,41,5.50
2007,03,27,00,42,5.40
2007,03,27,00,43,5.40
2007,03,27,00,44,5.40
2007,03,27,00,45,5.40
2007,03,27,00,46,5.40
2007,03,27,00,47,5.40
2007,03,27,00,48,5.40
2007,03,27,00,49,5.30
2007,03,27,00,50,5.30
2007,03,27,00,51,5.30
2007,03,27,00,52,5.30
2007,03,27,00,53,5.30
2007,03,27,00,54,5.30
2007,03,27,00,55,5.30
2007,03,27,00,56,5.30
2007,03,27,00,57,5.30
2007,03,27,00,58,5.30
2007,03,27,00,59,5.30
2007,03,27,01,00,5.30
2007,03,27,01,01,5.30
2007,03,27,01,02,5.20
2007,03,27,01,03,5.20
2007,03,27,01,04,5.20
2007,03,27,01,05,5.20
2007,03,27,01,06,5.20
2007,03,27,01,07,5.20
2007,03,27,01,08,5.20
2007,03,27,01,09,5.20
2007,03,27,01,10,5.20
2007,03,27,01,11,5.20
2007,03,27,01,12,5.20
2007,03,27,01,13,5.20
2007,03,27,01,14,5.20
2007,03,27,01,15,5.20
2007,03,27,01,16,5.20
2007,03,27,01,17,5.20
2007,03,27,01,18,5.20
2007,03,27,01,19,5.20
2007,03,27,01,20,5.20
2007,03,27,01,21,5.20
2007,03,27,01,22,5.20
2007,03,27,01,23,5.20
2007,03,27,01,24,5.20
2007,03,27,01,25,5.20
2007,03,27,01,26,5.20
2007,03,27,01,27,5.20
2007,03,27,01,28,5.20
2007,03,27,01,29,5.20
2007,03,27,01,30,5.20
2007,03,27,01,31,5.20
2007,03,27,01,32,5.20
2007,03,27,01,33,5.20
2007,03,27,01,34,5.20
2007,03,27,01,35,5.20
2007,03,27,01,36,5.20
2007,03,27,01,37,5.20
2007,03,27,01,38,5.20
2007,03,27,01,39,5.20
2007,03,27,01,40,5.30
2007,03,27,01,41,5.30
2007,03,27,01,42,5.30
2007,03,27,01,43,5.30
2007,03,27,01,44,5.30
2007,03,27,01,45,5.40
2007,03,27,01,46,5.50
2007,03,27,01,47,5.50
2007,03,27,01,48,5.60
2007,03,27,01,49,5.70
2007,03,27,01,50,5.70
2007,03,27,01,51,5.80
2007,03,27,01,52,5.90
2007,03,27,01,53,6.00
2007,03,27,01,54,6.10
2007,03,27,01,55,6.20
2007,03,27,01,56,6.30
2007,03,27,01,57,6.30
2007,03,27,01,58,6.40
2007,03,27,01,59,6.40
2007,03,27,02,00,6.50
2007,03,27,02,01,6.60
2007,03,27,02,02,6.60
2007,03,27,02,03,6.60
2007,03,27,02,04,6.60
2007,03,27,02,05,6.60
2007,03,27,02,06,6.60
2007,03,27,02,07,6.60
2007,03,27,02,08,6.60
2007,03,27,02,09,6.60
2007,03,27,02,10,6.60
2007,03,27,02,11,6.70
2007,03,27,02,12,6.70
2007,03,27,02,13,6.70
2007,03,27,02,14,6.70
2007,03,27,02,15,6.70
2007,03,27,02,16,6.70
2007,03,27,02,17,6.70
2007,03,27,02,18,6.70
2007,03,27,02,19,6.70
2007,03,27,02,20,6.70
2007,03,27,02,21,6.70
2007,03,27,02,22,6.70
2007,03,27,02,23,6.70
2007,03,27,02,24,6.70
2007,03,27,02,25,6.60
2007,03,27,02,26,6.60
2007,03,27,02,27,6.60
2007,03,27,02,28,6.60
2007,03,27,02,29,6.60
2007,03,27,02,30,6.60
2007,03,27,02,31,6.60
2007,03,27,02,32,6.60
2007,03,27,02,33,6.60
2007,03,27,02,34,6.60
2007,03,27,02,35,6.60
2007,03,27,02,36,6.40
2007,03,27,02,37,6.40
2007,03,27,02,38,6.40
2007,03,27,02,39,6.40
2007,03,27,02,40,6.40
2007,03,27,02,41,6.40
2007,03,27,02,42,6.30
2007,03,27,02,43,6.30
2007,03,27,02,44,6.30
2007,03,27,02,45,6.20
2007,03,27,02,46,6.20
2007,03,27,02,47,6.10
2007,03,27,02,48,6.10
2007,03,27,02,49,6.00
2007,03,27,02,50,6.00
2007,03,27,02,51,5.90
2007,03,27,02,52,5.90
2007,03,27,02,53,5.80
2007,03,27,02,54,5.80
2007,03,27,02,55,5.80
2007,03,27,02,56,5.70
2007,03,27,02,57,5.70
2007,03,27,02,58,5.70
2007,03,27,02,59,5.70
2007,03,27,03,00,5.70
2007,03,27,03,01,5.70
2007,03,27,03,02,5.70
2007,03,27,03,03,5.70
2007,03,27,03,04,5.70
2007,03,27,03,05,5.70
2007,03,27,03,06,5.70
2007,03,27,03,07,5.70
2007,03,27,03,08,5.70
2007,03,27,03,09,5.70
2007,03,27,03,10,5.60
2007,03,27,03,11,5.60
2007,03,27,03,12,5.60
2007,03,27,03,13,5.60
2007,03,27,03,14,5.60
2007,03,27,03,15,5.60
2007,03,27,03,16,5.60
2007,03,27,03,17,5.60
2007,03,27,03,18,5.50
2007,03,27,03,19,5.50
2007,03,27,03,20,5.50
2007,03,27,03,21,5.40
2007,03,27,03,22,5.40
2007,03,27,03,23,5.40
2007,03,27,03,24,5.30
2007,03,27,03,25,5.30
2007,03,27,03,26,5.30
2007,03,27,03,27,5.30
2007,03,27,03,28,5.30
2007,03,27,03,29,5.20
2007,03,27,03,30,5.20
2007,03,27,03,31,5.20
2007,03,27,03,32,5.20
2007,03,27,03,33,5.10
2007,03,27,03,34,5.10
2007,03,27,03,35,5.10
2007,03,27,03,36,5.10
2007,03,27,03,37,5.10
2007,03,27,03,38,5.10
2007,03,27,03,39,5.00
2007,03,27,03,40,4.90
2007,03,27,03,41,4.90
2007,03,27,03,42,4.90
2007,03,27,03,43,4.90
2007,03,27,03,44,4.90
2007,03,27,03,45,4.90
2007,03,27,03,46,4.90
2007,03,27,03,47,4.80
2007,03,27,03,48,4.80
2007,03,27,03,49,4.80
2007,03,27,03,50,4.80
2007,03,27,03,51,4.70
2007,03,27,03,52,4.70
2007,03,27,03,53,4.70
2007,03,27,03,54,4.70
2007,03,27,03,55,4.70
2007,03,27,03,56,4.60
2007,03,27,03,57,4.60
2007,03,27,03,58,4.60
2007,03,27,03,59,4.60
2007,03,27,04,00,4.60
2007,03,27,04,01,4.60
2007,03,27,04,02,4.60
2007,03,27,04,03,4.50
2007,03,27,04,04,4.50
2007,03,27,04,05,4.50
2007,03,27,04,06,4.50
2007,03,27,04,07,4.40
2007,03,27,04,08,4.40
2007,03,27,04,09,4.40
2007,03,27,04,10,4.40
2007,03,27,04,11,4.30
2007,03,27,04,12,4.30
2007,03,27,04,13,4.30
2007,03,27,04,14,4.30
2007,03,27,04,15,4.20
2007,03,27,04,16,4.20
2007,03,27,04,17,4.20
2007,03,27,04,18,4.20
2007,03,27,04,19,4.20
2007,03,27,04,20,4.20
2007,03,27,04,21,4.20
2007,03,27,04,22,4.10
2007,03,27,04,23,4.10
2007,03,27,04,24,4.10
2007,03,27,04,25,4.00
2007,03,27,04,26,4.00
2007,03,27,04,27,4.00
2007,03,27,04,28,4.00
2007,03,27,04,29,3.90
2007,03,27,04,30,3.90
2007,03,27,04,31,3.90
2007,03,27,04,32,3.80
2007,03,27,04,33,3.80
2007,03,27,04,34,3.80
2007,03,27,04,35,3.80
2007,03,27,04,36,3.80
2007,03,27,04,37,3.80
2007,03,27,04,38,3.80
2007,03,27,04,39,3.80
2007,03,27,04,40,3.70
2007,03,27,04,41,3.70
2007,03,27,04,42,3.70
2007,03,27,04,43,3.70
2007,03,27,04,44,3.70
2007,03,27,04,45,3.70
2007,03,27,04,46,3.60
2007,03,27,04,47,3.60
2007,03,27,04,48,3.60
2007,03,27,04,49,3.60
2007,03,27,04,50,3.60
2007,03,27,04,51,3.60
2007,03,27,04,52,3.60
2007,03,27,04,53,3.50
2007,03,27,04,54,3.50
2007,03,27,04,55,3.50
2007,03,27,04,56,3.50
2007,03,27,04,57,3.50
2007,03,27,04,58,3.40
2007,03,27,04,59,3.40
2007,03,27,05,00,3.40
2007,03,27,05,01,3.40
2007,03,27,05,02,3.40
2007,03,27,05,03,3.40
2007,03,27,05,04,3.40
2007,03,27,05,05,3.40
2007,03,27,05,06,3.30
2007,03,27,05,07,3.30
2007,03,27,05,08,3.30
2007,03,27,05,09,3.30
2007,03,27,05,10,3.30
2007,03,27,05,11,3.30
2007,03,27,05,12,3.30
2007,03,27,05,13,3.30
2007,03,27,05,14,3.30
2007,03,27,05,15,3.20
2007,03,27,05,16,3.20
2007,03,27,05,17,3.20
2007,03,27,05,18,3.20
2007,03,27,05,19,3.20
2007,03,27,05,20,3.10
2007,03,27,05,21,3.10
2007,03,27,05,22,3.10
2007,03,27,05,23,3.10
2007,03,27,05,24,3.10
2007,03,27,05,25,3.10
2007,03,27,05,26,3.10
2007,03,27,05,27,3.10
2007,03,27,05,28,3.10
2007,03,27,05,29,3.10
2007,03,27,05,30,3.10
2007,03,27,05,31,3.10
2007,03,27,05,32,3.10
2007,03,27,05,33,3.00
2007,03,27,05,34,2.90
2007,03,27,05,35,2.90
2007,03,27,05,36,2.90
2007,03,27,05,37,2.90
2007,03,27,05,38,2.90
2007,03,27,05,39,2.90
2007,03,27,05,40,2.90
2007,03,27,05,41,2.90
2007,03,27,05,42,2.90
2007,03,27,05,43,2.90
2007,03,27,05,44,2.90
2007,03,27,05,45,2.80
2007,03,27,05,46,2.80
2007,03,27,05,47,2.80
2007,03,27,05,48,2.80
2007,03,27,05,49,2.80
2007,03,27,05,50,2.80
2007,03,27,05,51,2.80
2007,03,27,05,52,2.80
2007,03,27,05,53,2.80
2007,03,27,05,54,2.80
2007,03,27,05,55,2.80
2007,03,27,05,56,2.80
2007,03,27,05,57,2.80
2007,03,27,05,58,2.80
2007,03,27,05,59,2.80
2007,03,27,06,00,2.80
2007,03,27,06,01,2.80
2007,03,27,06,02,2.80
2007,03,27,06,03,2.80
2007,03,27,06,04,2.70
2007,03,27,06,05,2.70
2007,03,27,06,06,2.70
2007,03,27,06,07,2.70
2007,03,27,06,08,2.70
2007,03,27,06,09,2.70
2007,03,27,06,10,2.70
2007,03,27,06,11,2.70
2007,03,27,06,12,2.70
2007,03,27,06,13,2.70
2007,03,27,06,14,2.70
2007,03,27,06,15,2.70
2007,03,27,06,16,2.70
2007,03,27,06,17,2.70
2007,03,27,06,18,2.70
2007,03,27,06,19,2.70
2007,03,27,06,20,2.70
2007,03,27,06,21,2.60
2007,03,27,06,22,2.60
2007,03,27,06,23,2.60
2007,03,27,06,24,2.60
2007,03,27,06,25,2.60
2007,03,27,06,26,2.60
2007,03,27,06,27,2.60
2007,03,27,06,28,2.60
2007,03,27,06,29,2.60
2007,03,27,06,30,2.60
2007,03,27,06,31,2.60
2007,03,27,06,32,2.60
2007,03,27,06,33,2.60
2007,03,27,06,34,2.50
2007,03,27,06,35,2.50
2007,03,27,06,36,2.50
2007,03,27,06,37,2.50
2007,03,27,06,38,2.40
2007,03,27,06,39,2.40
2007,03,27,06,40,2.40
2007,03,27,06,41,2.40
2007,03,27,06,42,2.30
2007,03,27,06,43,2.30
2007,03,27,06,44,2.30
2007,03,27,06,45,2.30
2007,03,27,06,46,2.20
2007,03,27,06,47,2.20
2007,03,27,06,48,2.20
2007,03,27,06,49,2.20
2007,03,27,06,50,2.20
2007,03,27,06,51,2.20
2007,03,27,06,52,2.20
2007,03,27,06,53,2.20
2007,03,27,06,54,2.20
2007,03,27,06,55,2.20
2007,03,27,06,56,2.20
2007,03,27,06,57,2.20
2007,03,27,06,58,2.20
2007,03,27,06,59,2.20
2007,03,27,07,00,2.20
2007,03,27,07,01,2.20
2007,03,27,07,02,2.20
2007,03,27,07,03,2.20
2007,03,27,07,04,2.20
2007,03,27,07,05,2.20
2007,03,27,07,06,2.20
2007,03,27,07,07,2.10
2007,03,27,07,08,2.10
2007,03,27,07,09,2.10
2007,03,27,07,10,2.10
2007,03,27,07,11,2.00
2007,03,27,07,12,2.00
2007,03,27,07,13,2.00
2007,03,27,07,14,2.00
2007,03,27,07,15,2.00
2007,03,27,07,16,2.00
2007,03,27,07,17,2.00
2007,03,27,07,18,2.00
2007,03,27,07,19,2.00
2007,03,27,07,20,2.00
2007,03,27,07,21,2.00
2007,03,27,07,22,2.00
2007,03,27,07,23,2.00
2007,03,27,07,24,2.00
2007,03,27,07,25,2.00
2007,03,27,07,26,2.00
2007,03,27,07,27,1.90
2007,03,27,07,28,1.90
2007,03,27,07,29,1.90
2007,03,27,07,30,1.90
2007,03,27,07,31,1.90
2007,03,27,07,32,1.90
2007,03,27,07,33,1.90
2007,03,27,07,34,1.90
2007,03,27,07,35,2.00
2007,03,27,07,36,2.00
2007,03,27,07,37,2.00
2007,03,27,07,38,2.00
2007,03,27,07,39,2.00
2007,03,27,07,40,2.00
2007,03,27,07,41,2.00
2007,03,27,07,42,2.00
2007,03,27,07,43,2.10
2007,03,27,07,44,2.10
2007,03,27,07,45,2.10
2007,03,27,07,46,2.20
2007,03,27,07,47,2.20
2007,03,27,07,48,2.20
2007,03,27,07,49,2.20
2007,03,27,07,50,2.20
2007,03,27,07,51,2.30
2007,03,27,07,52,2.30
2007,03,27,07,53,2.40
2007,03,27,07,54,2.50
2007,03,27,07,55,2.50
2007,03,27,07,56,2.60
2007,03,27,07,57,2.70
2007,03,27,07,58,2.70
2007,03,27,07,59,2.80
2007,03,27,08,00,2.90
2007,03,27,08,01,2.90
2007,03,27,08,02,2.90
2007,03,27,08,03,3.00
2007,03,27,08,04,3.10
2007,03,27,08,05,3.10
2007,03,27,08,06,3.10
2007,03,27,08,07,3.10
2007,03,27,08,08,3.20
2007,03,27,08,09,3.20
2007,03,27,08,10,3.30
2007,03,27,08,11,3.30
2007,03,27,08,12,3.30
2007,03,27,08,13,3.40
2007,03,27,08,14,3.50
2007,03,27,08,15,3.50
2007,03,27,08,16,3.50
2007,03,27,08,17,3.60
2007,03,27,08,18,3.60
2007,03,27,08,19,3.70
2007,03,27,08,20,3.70
2007,03,27,08,21,3.70
2007,03,27,08,22,3.80
2007,03,27,08,23,3.80
2007,03,27,08,24,3.80
2007,03,27,08,25,3.80
2007,03,27,08,26,3.90
2007,03,27,08,27,4.00
2007,03,27,08,28,4.00
2007,03,27,08,29,4.10
2007,03,27,08,30,4.10
2007,03,27,08,31,4.20
2007,03,27,08,32,4.40
2007,03,27,08,33,4.50
2007,03,27,08,34,4.60
2007,03,27,08,35,4.70
2007,03,27,08,36,4.90
2007,03,27,08,37,4.90
2007,03,27,08,38,5.10
2007,03,27,08,39,5.10
2007,03,27,08,40,5.20
2007,03,27,08,41,5.30
2007,03,27,08,42,5.40
2007,03,27,08,43,5.50
2007,03,27,08,44,5.60
2007,03,27,08,45,5.70
2007,03,27,08,46,5.70
2007,03,27,08,47,5.80
2007,03,27,08,48,5.90
2007,03,27,08,49,5.90
2007,03,27,08,50,6.00
2007,03,27,08,51,6.00
2007,03,27,08,52,6.10
2007,03,27,08,53,6.20
2007,03,27,08,54,6.30
2007,03,27,08,55,6.40
2007,03,27,08,56,6.40
2007,03,27,08,57,6.50
2007,03,27,08,58,6.60
2007,03,27,08,59,6.70
2007,03,27,09,00,6.80
2007,03,27,09,01,6.80
2007,03,27,09,02,6.90
2007,03,27,09,03,7.00
2007,03,27,09,04,7.00
2007,03,27,09,05,7.10
2007,03,27,09,06,7.20
2007,03,27,09,07,7.20
2007,03,27,09,08,7.30
2007,03,27,09,09,7.40
2007,03,27,09,10,7.40
2007,03,27,09,11,7.50
2007,03,27,09,12,7.50
2007,03,27,09,13,7.60
2007,03,27,09,14,7.60
2007,03,27,09,15,7.70
2007,03,27,09,16,7.80
2007,03,27,09,17,7.80
2007,03,27,09,18,7.80
2007,03,27,09,19,7.90
2007,03,27,09,20,7.90
2007,03,27,09,21,7.90
2007,03,27,09,22,8.00
2007,03,27,09,23,8.00
2007,03,27,09,24,8.00
2007,03,27,09,25,8.00
2007,03,27,09,26,8.00
2007,03,27,09,27,8.00
2007,03,27,09,28,8.00
2007,03,27,09,29,7.90
2007,03,27,09,30,7.90
2007,03,27,09,31,7.90
2007,03,27,09,32,7.90
2007,03,27,09,33,7.90
2007,03,27,09,34,7.90
2007,03,27,09,35,7.80
2007,03,27,09,36,7.80
2007,03,27,09,37,7.80
2007,03,27,09,38,7.80
2007,03,27,09,39,7.80
2007,03,27,09,40,7.80
2007,03,27,09,41,7.80
2007,03,27,09,42,7.90
2007,03,27,09,43,7.90
2007,03,27,09,44,7.90
2007,03,27,09,45,7.90
2007,03,27,09,46,8.00
2007,03,27,09,47,8.00
2007,03,27,09,48,8.00
2007,03,27,09,49,8.00
2007,03,27,09,50,8.00
2007,03,27,09,51,8.00
2007,03,27,09,52,8.10
2007,03,27,09,53,8.10
2007,03,27,09,54,8.20
2007,03,27,09,55,8.20
2007,03,27,09,56,8.20
2007,03,27,09,57,8.20
2007,03,27,09,58,8.20
2007,03,27,09,59,8.20
2007,03,27,10,00,8.20
2007,03,27,10,01,8.20
2007,03,27,10,02,8.20
2007,03,27,10,03,8.20
2007,03,27,10,04,8.20
2007,03,27,10,05,8.20
2007,03,27,10,06,8.20
2007,03,27,10,07,8.20
2007,03,27,10,08,8.20
2007,03,27,10,09,8.20
2007,03,27,10,10,8.20
2007,03,27,10,11,8.20
2007,03,27,10,12,8.20
2007,03,27,10,13,8.30
2007,03,27,10,14,8.30
2007,03,27,10,15,8.30
2007,03,27,10,16,8.20
2007,03,27,10,17,8.20
2007,03,27,10,18,8.20
2007,03,27,10,19,8.20
2007,03,27,10,20,8.20
2007,03,27,10,21,8.20
2007,03,27,10,22,8.20
2007,03,27,10,23,8.20
2007,03,27,10,24,8.20
2007,03,27,10,25,8.20
2007,03,27,10,26,8.20
2007,03,27,10,27,8.20
2007,03,27,10,28,8.20
2007,03,27,10,29,8.20
2007,03,27,10,30,8.20
2007,03,27,10,31,8.30
2007,03,27,10,32,8.30
2007,03,27,10,33,8.30
2007,03,27,10,34,8.30
2007,03,27,10,35,8.30
2007,03,27,10,36,8.30
2007,03,27,10,37,8.40
2007,03,27,10,38,8.40
2007,03,27,10,39,8.40
2007,03,27,10,40,8.50
2007,03,27,10,41,8.50
2007,03,27,10,42,8.50
2007,03,27,10,43,8.60
2007,03,27,10,44,8.60
2007,03,27,10,45,8.60
2007,03,27,10,46,8.70
2007,03,27,10,47,8.70
2007,03,27,10,48,8.70
2007,03,27,10,49,8.70
2007,03,27,10,50,8.70
2007,03,27,10,51,8.70
2007,03,27,10,52,8.70
2007,03,27,10,53,8.80
2007,03,27,10,54,8.80
2007,03,27,10,55,8.80
2007,03,27,10,56,8.80
2007,03,27,10,57,8.80
2007,03,27,10,58,8.80
2007,03,27,10,59,8.80
2007,03,27,11,00,8.80
2007,03,27,11,01,8.80
2007,03,27,11,02,8.90
2007,03,27,11,03,8.90
2007,03,27,11,04,8.90
2007,03,27,11,05,8.90
2007,03,27,11,06,8.90
2007,03,27,11,07,8.90
2007,03,27,11,08,9.00
2007,03,27,11,09,9.00
2007,03,27,11,10,9.00
2007,03,27,11,11,9.00
2007,03,27,11,12,8.90
2007,03,27,11,13,8.90
2007,03,27,11,14,8.90
2007,03,27,11,15,8.80
2007,03,27,11,16,8.70
2007,03,27,11,17,8.70
2007,03,27,11,18,8.70
2007,03,27,11,19,8.70
2007,03,27,11,20,8.70
2007,03,27,11,21,8.70
2007,03,27,11,22,8.80
2007,03,27,11,23,8.90
2007,03,27,11,24,8.90
2007,03,27,11,25,8.90
2007,03,27,11,26,8.90
2007,03,27,11,27,8.90
2007,03,27,11,28,8.90
2007,03,27,11,29,9.00
2007,03,27,11,30,9.10
2007,03,27,11,31,9.10
2007,03,27,11,32,9.20
2007,03,27,11,33,9.30
2007,03,27,11,34,9.50
2007,03,27,11,35,9.70
2007,03,27,11,36,9.70
2007,03,27,11,37,9.80
2007,03,27,11,38,9.90
2007,03,27,11,39,10.00
2007,03,27,11,40,10.10
2007,03,27,11,41,10.20
2007,03,27,11,42,10.20
2007,03,27,11,43,10.30
2007,03,27,11,44,10.30
2007,03,27,11,45,10.30
2007,03,27,11,46,10.30
2007,03,27,11,47,10.30
2007,03,27,11,48,10.30
2007,03,27,11,49,10.30
2007,03,27,11,50,10.30
2007,03,27,11,51,10.30
2007,03,27,11,52,10.40
2007,03,27,11,53,10.40
2007,03,27,11,54,10.40
2007,03,27,11,55,10.50
2007,03,27,11,56,10.60
2007,03,27,11,57,10.50
2007,03,27,11,58,10.40
2007,03,27,11,59,10.50
2007,03,27,12,00,10.60
2007,03,27,12,01,10.50
2007,03,27,12,02,10.40
2007,03,27,12,03,10.50
2007,03,27,12,04,10.60
2007,03,27,12,05,10.70
2007,03,27,12,06,10.80
2007,03,27,12,07,10.80
2007,03,27,12,08,10.90
2007,03,27,12,09,10.90
2007,03,27,12,10,11.00
2007,03,27,12,11,11.10
2007,03,27,12,12,11.10
2007,03,27,12,13,11.10
2007,03,27,12,14,11.00
2007,03,27,12,15,10.90
2007,03,27,12,16,10.80
2007,03,27,12,17,10.80
2007,03,27,12,18,10.90
2007,03,27,12,19,10.90
2007,03,27,12,20,11.10
2007,03,27,12,21,11.00
2007,03,27,12,22,11.00
2007,03,27,12,23,11.00
2007,03,27,12,24,10.90
2007,03,27,12,25,10.90
2007,03,27,12,26,10.90
2007,03,27,12,27,11.00
2007,03,27,12,28,11.10
2007,03,27,12,29,11.10
2007,03,27,12,30,11.10
2007,03,27,12,31,11.20
2007,03,27,12,32,11.10
2007,03,27,12,33,11.10
2007,03,27,12,34,11.10
2007,03,27,12,35,11.20
2007,03,27,12,36,11.20
2007,03,27,12,37,11.20
2007,03,27,12,38,11.30
2007,03,27,12,39,11.20
2007,03,27,12,40,11.30
2007,03,27,12,41,11.30
2007,03,27,12,42,11.30
2007,03,27,12,43,11.30
2007,03,27,12,44,11.40
2007,03,27,12,45,11.40
2007,03,27,12,46,11.40
2007,03,27,12,47,11.40
2007,03,27,12,48,11.30
2007,03,27,12,49,11.30
2007,03,27,12,50,11.30
2007,03,27,12,51,11.30
2007,03,27,12,52,11.30
2007,03,27,12,53,11.20
2007,03,27,12,54,11.10
2007,03,27,12,55,11.10
2007,03,27,12,56,11.20
2007,03,27,12,57,11.20
2007,03,27,12,58,11.30
2007,03,27,12,59,11.30
2007,03,27,13,00,11.40
2007,03,27,13,01,11.40
2007,03,27,13,02,11.40
2007,03,27,13,03,11.40
2007,03,27,13,04,11.40
2007,03,27,13,05,11.40
2007,03,27,13,06,11.50
2007,03,27,13,07,11.60
2007,03,27,13,08,11.60
2007,03,27,13,09,11.60
2007,03,27,13,10,11.60
2007,03,27,13,11,11.60
2007,03,27,13,12,11.40
2007,03,27,13,13,11.20
2007,03,27,13,14,11.20
2007,03,27,13,15,11.10
2007,03,27,13,16,11.10
2007,03,27,13,17,11.10
2007,03,27,13,18,10.90
2007,03,27,13,19,10.90
2007,03,27,13,20,11.00
2007,03,27,13,21,11.10
2007,03,27,13,22,11.10
2007,03,27,13,23,11.10
2007,03,27,13,24,11.20
2007,03,27,13,25,11.20
2007,03,27,13,26,11.10
2007,03,27,13,27,11.20
2007,03,27,13,28,11.20
2007,03,27,13,29,11.10
2007,03,27,13,30,10.90
2007,03,27,13,31,10.80
2007,03,27,13,32,10.80
2007,03,27,13,33,10.70
2007,03,27,13,34,10.60
2007,03,27,13,35,10.60
2007,03,27,13,36,10.60
2007,03,27,13,37,10.50
2007,03,27,13,38,10.40
2007,03,27,13,39,10.30
2007,03,27,13,40,10.30
2007,03,27,13,41,10.30
2007,03,27,13,42,10.30
2007,03,27,13,43,10.40
2007,03,27,13,44,10.50
2007,03,27,13,45,10.60
2007,03,27,13,46,10.60
2007,03,27,13,47,10.60
2007,03,27,13,48,10.60
2007,03,27,13,49,10.60
2007,03,27,13,50,10.70
2007,03,27,13,51,10.60
2007,03,27,13,52,10.60
2007,03,27,13,53,10.60
2007,03,27,13,54,10.70
2007,03,27,13,55,10.70
2007,03,27,13,56,10.70
2007,03,27,13,57,10.70
2007,03,27,13,58,10.70
2007,03,27,13,59,10.70
2007,03,27,14,00,10.70
2007,03,27,14,01,10.80
2007,03,27,14,02,10.90
2007,03,27,14,03,10.90
2007,03,27,14,04,10.90
2007,03,27,14,05,10.90
2007,03,27,14,06,11.00
2007,03,27,14,07,11.00
2007,03,27,14,08,10.90
2007,03,27,14,09,10.90
2007,03,27,14,10,10.90
2007,03,27,14,11,11.00
2007,03,27,14,12,11.10
2007,03,27,14,13,11.10
2007,03,27,14,14,11.10
2007,03,27,14,15,11.10
2007,03,27,14,16,11.20
2007,03,27,14,17,11.40
2007,03,27,14,18,11.40
2007,03,27,14,19,11.40
2007,03,27,14,20,11.50
2007,03,27,14,21,11.60
2007,03,27,14,22,11.60
2007,03,27,14,23,11.70
2007,03,27,14,24,11.80
2007,03,27,14,25,11.80
2007,03,27,14,26,11.90
2007,03,27,14,27,11.90
2007,03,27,14,28,11.90
2007,03,27,14,29,12.00
2007,03,27,14,30,12.00
2007,03,27,14,31,12.10
2007,03,27,14,32,12.10
2007,03,27,14,33,12.10
2007,03,27,14,34,12.00
2007,03,27,14,35,11.90
2007,03,27,14,36,11.80
2007,03,27,14,37,11.70
2007,03,27,14,38,11.70
2007,03,27,14,39,11.60
2007,03,27,14,40,11.70
2007,03,27,14,41,11.70
2007,03,27,14,42,11.70
2007,03,27,14,43,11.70
2007,03,27,14,44,11.80
2007,03,27,14,45,11.80
2007,03,27,14,46,11.90
2007,03,27,14,47,11.90
2007,03,27,14,48,12.00
2007,03,27,14,49,12.00
2007,03,27,14,50,12.00
2007,03,27,14,51,12.00
2007,03,27,14,52,12.00
2007,03,27,14,53,12.00
2007,03,27,14,54,11.90
2007,03,27,14,55,11.90
2007,03,27,14,56,11.80
2007,03,27,14,57,11.80
2007,03,27,14,58,11.70
2007,03,27,14,59,11.60
2007,03,27,15,00,11.40
2007,03,27,15,01,11.40
2007,03,27,15,02,11.40
2007,03,27,15,03,11.30
2007,03,27,15,04,11.20
2007,03,27,15,05,11.10
2007,03,27,15,06,11.10
2007,03,27,15,07,11.10
2007,03,27,15,08,11.10
2007,03,27,15,09,11.10
2007,03,27,15,10,11.10
2007,03,27,15,11,11.10
2007,03,27,15,12,11.10
2007,03,27,15,13,11.10
2007,03,27,15,14,11.20
2007,03,27,15,15,11.20
2007,03,27,15,16,11.20
2007,03,27,15,17,11.10
2007,03,27,15,18,11.10
2007,03,27,15,19,11.10
2007,03,27,15,20,11.10
2007,03,27,15,21,11.10
2007,03,27,15,22,11.10
2007,03,27,15,23,11.10
2007,03,27,15,24,11.20
2007,03,27,15,25,11.10
2007,03,27,15,26,11.10
2007,03,27,15,27,11.10
2007,03,27,15,28,11.00
2007,03,27,15,29,10.90
2007,03,27,15,30,10.90
2007,03,27,15,31,10.70
2007,03,27,15,32,10.60
2007,03,27,15,33,10.60
2007,03,27,15,34,10.60
2007,03,27,15,35,10.50
2007,03,27,15,36,10.40
2007,03,27,15,37,10.50
2007,03,27,15,38,10.60
2007,03,27,15,39,10.60
2007,03,27,15,40,10.60
2007,03,27,15,41,10.40
2007,03,27,15,42,10.40
2007,03,27,15,43,10.40
2007,03,27,15,44,10.60
2007,03,27,15,45,10.60
2007,03,27,15,46,10.60
2007,03,27,15,47,10.70
2007,03,27,15,48,10.70
2007,03,27,15,49,10.70
2007,03,27,15,50,10.80
2007,03,27,15,51,10.80
2007,03,27,15,52,10.90
2007,03,27,15,53,10.90
2007,03,27,15,54,11.00
2007,03,27,15,55,11.10
2007,03,27,15,56,11.00
2007,03,27,15,57,10.90
2007,03,27,15,58,10.80
2007,03,27,15,59,10.80
2007,03,27,16,00,10.80
2007,03,27,16,01,10.80
2007,03,27,16,02,10.80
2007,03,27,16,03,10.70
2007,03,27,16,04,10.50
2007,03,27,16,05,10.40
2007,03,27,16,06,10.30
2007,03,27,16,07,10.20
2007,03,27,16,08,10.20
2007,03,27,16,09,10.10
2007,03,27,16,10,10.10
2007,03,27,16,11,10.10
2007,03,27,16,12,10.10
2007,03,27,16,13,10.10
2007,03,27,16,14,10.10
2007,03,27,16,15,10.10
2007,03,27,16,16,10.10
2007,03,27,16,17,10.10
2007,03,27,16,18,10.00
2007,03,27,16,19,9.90
2007,03,27,16,20,10.00
2007,03,27,16,21,10.10
2007,03,27,16,22,10.10
2007,03,27,16,23,10.00
2007,03,27,16,24,9.90
2007,03,27,16,25,9.90
2007,03,27,16,26,9.90
2007,03,27,16,27,9.80
2007,03,27,16,28,9.80
2007,03,27,16,29,9.90
2007,03,27,16,30,9.90
2007,03,27,16,31,9.90
2007,03,27,16,32,9.80
2007,03,27,16,33,9.80
2007,03,27,16,34,9.80
2007,03,27,16,35,9.80
2007,03,27,16,36,9.80
2007,03,27,16,37,9.80
2007,03,27,16,38,9.80
2007,03,27,16,39,9.80
2007,03,27,16,40,9.80
2007,03,27,16,41,9.80
2007,03,27,16,42,9.80
2007,03,27,16,43,9.80
2007,03,27,16,44,9.70
2007,03,27,16,45,9.70
2007,03,27,16,46,9.70
2007,03,27,16,47,9.70
2007,03,27,16,48,9.70
2007,03,27,16,49,9.70
2007,03,27,16,50,9.70
2007,03,27,16,51,9.70
2007,03,27,16,52,9.80
2007,03,27,16,53,9.80
2007,03,27,16,54,9.90
2007,03,27,16,55,9.90
2007,03,27,16,56,9.90
2007,03,27,16,57,9.80
2007,03,27,16,58,9.80
2007,03,27,16,59,9.70
2007,03,27,17,00,9.70
2007,03,27,17,01,9.70
2007,03,27,17,02,9.60
2007,03,27,17,03,9.60
2007,03,27,17,04,9.60
2007,03,27,17,05,9.60
2007,03,27,17,06,9.60
2007,03,27,17,07,9.60
2007,03,27,17,08,9.60
2007,03,27,17,09,9.50
2007,03,27,17,10,9.50
2007,03,27,17,11,9.50
2007,03,27,17,12,9.40
2007,03,27,17,13,9.40
2007,03,27,17,14,9.40
2007,03,27,17,15,9.40
2007,03,27,17,16,9.50
2007,03,27,17,17,9.40
2007,03,27,17,18,9.40
2007,03,27,17,19,9.40
2007,03,27,17,20,9.40
2007,03,27,17,21,9.40
2007,03,27,17,22,9.40
2007,03,27,17,23,9.30
2007,03,27,17,24,9.20
2007,03,27,17,25,9.20
2007,03,27,17,26,9.20
2007,03,27,17,27,9.10
2007,03,27,17,28,9.00
2007,03,27,17,29,9.00
2007,03,27,17,30,8.90
2007,03,27,17,31,8.90
2007,03,27,17,32,9.00
2007,03,27,17,33,9.00
2007,03,27,17,34,8.90
2007,03,27,17,35,8.90
2007,03,27,17,36,8.90
2007,03,27,17,37,8.80
2007,03,27,17,38,8.80
2007,03,27,17,39,8.70
2007,03,27,17,40,8.60
2007,03,27,17,41,8.50
2007,03,27,17,42,8.50
2007,03,27,17,43,8.40
2007,03,27,17,44,8.30
2007,03,27,17,45,8.30
2007,03,27,17,46,8.20
2007,03,27,17,47,8.20
2007,03,27,17,48,8.20
2007,03,27,17,49,8.20
2007,03,27,17,50,8.20
2007,03,27,17,51,8.20
2007,03,27,17,52,8.20
2007,03,27,17,53,8.10